Starlink 31618

decayed
NORAD ID: 59528 Int'l Des: 2024-073 Owner: SPXS Country: US Constellation: starlink
LEOCIRCULAR
Gruppe

Über Starlink 31618

Beschreibung wird geladen...

Höhenverlauf

Altitude vs Time

uPlot chart will show altitude changes over time

Zweizeiliger Elementsatz

1 59528U 24073T 25336.82894911 .11848783 91593-5 43768-2 0 9998
2 59528 42.9702 112.3194 0015761 334.5583 25.4526 16.23226647 91730
Epoch: 2. Dez. 2025 • Age: 2196 hours

Aktueller Status

Position data unavailable
Startdatum 17. Apr. 2024
Alter 1.8 years
Verglühungsdatum 3. Dez. 2025
Typ internet

Technische Details

Klassifizierung Payload
Masse 730.00 kg
Trockenmasse 700.00 kg
Gesamtmasse 730.00 kg
Länge 0.30 m
Durchmesser 4.10 m
Spannweite 29.00 m
Form Box + pan
Hersteller SPXS
Bus-Typ Starlink V2M
Phasenstatus Unknown Transfer Status
Besitzer/Staat SPXS/US

Große Konstellationen

Loading constellations...